DW0383 Weather Reports


time (UTC)temp
C
wind
direction
speed
KPH
gust
KPH
rain 1hr
cm
rain 24hr
cm
rain mn
cm
humidity
%
barometer
mb
20260506192812 6 85 1.6 4.8 0.08 3.10 2.26 96 1006.5
20260506192345 6 291 1.6 8.0 0.08 3.10 2.26 96 1006.6
20260506191816 6 55 4.8 9.7 0.08 3.10 2.26 96 1006.4
20260506191311 6 83 4.8 8.0 0.08 3.10 2.26 96 1006.5
20260506190825 6 77 4.8 8.0 0.05 3.07 2.24 96 1006.5
20260506190325 6 330 0.0 4.8 0.05 3.07 2.24 97 1006.6
20260506185827 6 330 0.0 4.8 0.08 3.12 2.24 97 1006.8
20260506185320 6 323 1.6 4.8 0.08 3.12 2.24 97 1006.9
20260506184832 6 27 1.6 4.8 0.10 3.12 2.24 97 1007.0
20260506184343 6 326 1.6 4.8 0.10 3.10 2.21 97 1007.2
20260506183818 6 329 1.6 4.8 0.13 3.10 2.21 97 1007.0
20260506183309 6 328 1.6 4.8 0.13 3.10 2.21 97 1007.1
20260506182809 6 334 1.6 8.0 0.13 3.07 2.18 97 1007.2
20260506182322 6 320 1.6 8.0 0.15 3.07 2.18 97 1007.2
20260506181813 6 324 0.0 4.8 0.18 3.07 2.18 97 1007.2
20260506181306 6 324 1.6 4.8 0.18 3.07 2.18 97 1007.5
20260506180818 6 320 1.6 4.8 0.20 3.07 2.18 97 1007.5
20260506180310 6 320 1.6 4.8 0.18 3.05 2.16 97 1007.5
20260506175844 6 325 1.6 4.8 0.18 3.05 2.16 97 1007.4
20260506175336 6 313 0.0 3.2 0.20 3.05 2.16 97 1007.6
20260506174810 6 313 1.6 3.2 0.20 3.02 2.13 97 1007.7
20260506174321 6 313 0.0 3.2 0.18 3.00 2.11 97 1007.6
20260506173814 6 313 0.0 3.2 0.18 2.97 2.08 97 1007.6
20260506173307 6 313 0.0 3.2 0.20 2.97 2.08 96 1007.7
20260506172821 6 313 0.0 4.8 0.23 2.95 2.06 96 1007.6
20260506172318 6 313 3.2 4.8 0.23 2.92 2.03 96 1007.8
20260506171811 6 313 3.2 3.2 0.23 2.90 2.01 96 1007.8
20260506171324 6 329 1.6 3.2 0.25 2.90 2.01 97 1007.7
20260506170816 6 329 0.0 1.6 0.25 2.87 1.98 97 1007.7
20260506170328 6 329 0.0 4.8 0.28 2.87 1.98 97 1007.7
20260506165819 6 324 3.2 4.8 0.28 2.84 1.96 97 1007.8
20260506165337 6 307 1.6 3.2 0.30 2.84 1.96 97 1007.9
20260506164808 6 247 0.0 1.6 0.33 2.82 1.93 97 1007.8
20260506164320 6 247 0.0 1.6 0.36 2.82 1.93 97 1007.9
20260506163813 6 247 0.0 3.2 0.36 2.79 1.91 97 1008.0
20260506163311 6 247 0.0 3.2 0.33 2.77 1.88 97 1008.1
20260506162843 6 247 0.0 3.2 0.30 2.72 1.83 96 1008.0
20260506162314 6 247 1.6 3.2 0.30 2.69 1.80 96 1008.1
20260506161825 6 247 3.2 6.4 0.30 2.67 1.78 96 1008.1
20260506161336 6 245 3.2 6.4 0.30 2.64 1.75 96 1008.4
20260506160808 6 289 1.6 4.8 0.30 2.62 1.73 96 1008.4
20260506160321 6 315 0.0 4.8 0.30 2.59 1.70 96 1008.3
20260506155823 6 315 3.2 8.0 0.30 2.57 1.68 96 1008.4
20260506155316 6 329 3.2 8.0 0.30 2.54 1.65 96 1008.5
20260506154810 6 351 3.2 6.4 0.25 2.49 1.60 96 1008.5
20260506154322 6 322 3.2 11.3 0.25 2.46 1.57 96 1008.4
20260506153823 6 350 3.2 11.3 0.25 2.44 1.55 96 1008.4
20260506153325 6 315 3.2 8.0 0.25 2.44 1.55 96 1008.5
20260506152817 6 344 4.8 8.0 0.25 2.41 1.52 96 1008.3
20260506152311 6 319 3.2 4.8 0.23 2.36 1.47 96 1008.2
20260506151825 6 332 1.6 4.8 0.23 2.36 1.47 96 1008.2
20260506151316 6 317 1.6 4.8 0.23 2.34 1.45 96 1008.2
20260506150810 6 76 1.6 4.8 0.23 2.31 1.42 95 1007.9
20260506150343 6 71 0.0 3.2 0.20 2.29 1.40 96 1007.9
20260506145834 6 333 0.0 3.2 0.20 2.26 1.37 96 1008.0
20260506145307 6 12 1.6 4.8 0.18 2.24 1.35 95 1008.0
20260506144820 6 95 0.0 6.4 0.20 2.24 1.35 95 1008.0
20260506144314 6 70 3.2 8.0 0.18 2.21 1.32 95 1008.0
20260506143808 6 61 4.8 8.0 0.15 2.18 1.30 96 1008.1
20260506143320 6 68 1.6 3.2 0.13 2.16 1.27 96 1008.2
20260506142814 6 275 0.0 1.6 0.13 2.16 1.27 96 1008.2
20260506142307 6 275 0.0 3.2 0.10 2.13 1.24 96 1008.5
20260506141818 6 273 1.6 3.2 0.10 2.13 1.24 96 1008.5
20260506141310 6 273 0.0 3.2 0.10 2.11 1.22 96 1008.2
20260506140823 6 273 0.0 3.2 0.08 2.08 1.19 96 1008.2
20260506140316 6 335 0.0 3.2 0.05 2.06 1.17 95 1008.3
20260506135809 6 15 0.0 11.3 0.05 2.06 1.17 95 1008.2
20260506135321 6 29 3.2 11.3 0.05 2.06 1.17 95 1008.0
20260506134817 6 67 4.8 8.0 0.08 2.03 1.14 95 1008.0
20260506134308 6 91 3.2 6.4 0.10 2.03 1.14 95 1008.0
20260506133822 7 313 1.6 4.8 0.10 2.03 1.14 95 1008.2
20260506133315 7 313 1.6 4.8 0.13 2.03 1.14 96 1008.2
20260506132808 7 349 1.6 3.2 0.15 2.03 1.14 96 1008.3
20260506132320 7 349 1.6 3.2 0.18 2.03 1.14 96 1008.3
20260506131814 7 349 0.0 4.8 0.18 2.03 1.14 96 1008.5
20260506131306 7 349 0.0 4.8 0.18 2.01 1.12 96 1008.7
20260506130820 7 286 0.0 3.2 0.20 2.01 1.12 96 1008.7
20260506130322 7 286 0.0 3.2 0.20 2.01 1.12 96 1008.8
20260506125815 7 286 1.6 4.8 0.23 2.01 1.12 96 1008.8
20260506125344 7 347 1.6 8.0 0.25 2.01 1.12 96 1008.8
20260506124816 7 320 1.6 12.9 0.23 1.96 1.07 96 1008.9
20260506124330 7 116 8.0 12.9 0.20 1.93 1.04 96 1008.5
20260506123821 7 283 6.4 11.3 0.20 1.91 1.02 96 1008.6
20260506123315 7 118 1.6 12.9 0.23 1.91 1.02 96 1008.7
20260506122806 7 122 8.0 12.9 0.23 1.88 0.99 96 1008.6
20260506122318 7 58 0.0 4.8 0.23 1.85 0.97 96 1009.0
20260506121810 7 343 1.6 8.0 0.25 1.85 0.97 96 1009.3
20260506121341 7 316 0.0 6.4 0.23 1.83 0.94 96 1009.1
20260506120813 7 320 1.6 6.4 0.23 1.80 0.91 96 1009.1
20260506120306 7 77 4.8 6.4 0.20 1.78 0.89 96 1009.2
20260506115819 7 93 1.6 6.4 0.20 1.78 0.89 96 1009.2
20260506115340 7 67 3.2 6.4 0.20 1.75 0.86 96 1009.3
20260506114812 7 52 0.0 3.2 0.18 1.73 0.84 96 1009.2
20260506114308 7 335 0.0 3.2 0.15 1.70 0.81 96 1009.5
20260506113817 7 335 0.0 3.2 0.18 1.70 0.81 96 1009.6
20260506113322 7 335 3.2 3.2 0.15 1.68 0.79 96 1009.5
20260506112815 7 335 0.0 3.2 0.13 1.65 0.76 96 1009.2
20260506112308 7 335 1.6 6.4 0.10 1.63 0.74 96 1009.2
20260506111841 7 59 3.2 8.0 0.08 1.60 0.71 96 1008.9
20260506111312 7 59 3.2 12.9 0.08 1.60 0.71 95 1008.7
20260506110824 7 97 6.4 14.5 0.05 1.57 0.69 96 1008.5
20260506110317 8 62 6.4 14.5 0.05 1.57 0.69 96 1008.5
20260506105831 8 121 4.8 8.0 0.05 1.57 0.69 97 1008.6
20260506105342 8 323 0.0 3.2 0.03 1.55 0.66 97 1008.6
20260506104814 8 322 1.6 3.2 0.08 1.55 0.66 97 1008.7
20260506104310 8 322 1.6 3.2 0.08 1.55 0.66 97 1008.7
20260506103819 8 323 1.6 4.8 0.05 1.52 0.64 97 1008.6
20260506103318 8 323 3.2 4.8 0.08 1.52 0.64 97 1008.6
20260506102811 8 323 1.6 3.2 0.08 1.52 0.64 97 1008.5
20260506102313 8 322 1.6 3.2 0.08 1.52 0.64 97 1008.5
20260506101826 8 322 1.6 4.8 0.08 1.52 0.64 97 1008.5
20260506101345 8 323 3.2 4.8 0.10 1.52 0.64 97 1008.6
20260506100836 8 278 3.2 4.8 0.13 1.52 0.64 97 1008.5
20260506100308 8 275 3.2 4.8 0.13 1.52 0.64 97 1008.4
20260506095822 8 133 1.6 6.4 0.13 1.52 0.64 97 1008.3
20260506095314 8 129 4.8 6.4 0.13 1.50 0.61 97 1008.6
20260506094808 8 289 1.6 4.8 0.10 1.47 0.58 97 1009.4
20260506094320 8 324 1.6 3.2 0.10 1.47 0.58 96 1008.9
20260506093811 8 88 0.0 4.8 0.10 1.47 0.58 96 1008.5
20260506093308 8 85 3.2 4.8 0.08 1.45 0.56 96 1008.6
20260506092820 8 4 0.0 6.4 0.13 1.45 0.56 96 1009.1
20260506092333 8 4 1.6 6.4 0.13 1.45 0.56 96 1009.2
20260506091825 8 74 1.6 4.8 0.13 1.45 0.56 96 1008.9
20260506091316 8 299 3.2 8.0 0.10 1.42 0.53 96 1009.6
20260506090813 8 326 4.8 8.0 0.10 1.40 0.51 96 1009.2
20260506090310 8 9 0.0 3.2 0.10 1.40 0.51 96 1009.0
20260506085822 8 9 1.6 3.2 0.13 1.40 0.51 96 1009.2
20260506085335 8 272 3.2 6.4 0.18 1.37 0.48 96 1009.3
20260506084807 8 39 1.6 6.4 0.18 1.37 0.48 96 1009.1
20260506084319 8 1 3.2 4.8 0.18 1.37 0.48 96 1009.3
20260506083832 9 114 1.6 4.8 0.18 1.37 0.48 96 1009.3
20260506083325 9 97 3.2 6.4 0.18 1.37 0.48 96 1009.2
20260506082818 9 123 4.8 6.4 0.13 1.32 0.43 96 1009.0
20260506082331 9 321 0.0 4.8 0.13 1.32 0.43 96 1009.5
20260506081822 9 324 1.6 3.2 0.13 1.32 0.43 96 1009.3
20260506081314 10 339 0.0 3.2 0.13 1.32 0.43 97 1009.4
20260506080828 10 339 1.6 4.8 0.10 1.30 0.41 96 1009.3
20260506080326 10 339 1.6 6.4 0.10 1.30 0.41 96 1009.4
20260506073309 10 49 0.0 3.2 0.00 1.19 0.30 96 1008.8
20260506072823 10 49 0.0 6.4 0.00 1.19 0.30 96 1009.0
20260506072315 10 37 3.2 6.4 0.00 1.19 0.30 96 1009.0
20260506071807 10 83 1.6 11.3 0.00 1.19 0.30 97 1008.8
20260506071319 10 60 3.2 11.3 0.00 1.19 0.30 97 1008.7
20260506070812 10 72 4.8 8.0 0.00 1.19 0.30 97 1008.7
20260506070325 10 112 3.2 4.8 0.03 1.19 0.30 97 1008.7
20260506062347 10 122 1.6 4.8 0.05 1.19 0.30 97 1008.7
20260506061818 10 89 1.6 3.2 0.08 1.19 0.30 97 1008.9
20260506061313 10 322 1.6 3.2 0.10 1.19 0.30 97 1008.9
20260506060806 10 322 1.6 3.2 0.13 1.19 0.30 97 1009.0
20260506060318 10 322 1.6 3.2 0.13 1.17 0.28 97 1008.9
20260506051319 11 254 1.6 4.8 0.18 1.09 0.20 97 1009.1
20260506050812 11 276 1.6 4.8 0.18 1.07 0.18 97 1009.1
20260506050326 11 276 1.6 4.8 0.15 1.04 0.15 97 1009.0
20260506044824 11 247 0.0 3.2 0.13 0.99 0.10 97 1008.6
20260506044316 11 209 0.0 3.2 0.15 0.99 0.10 97 1008.6
20260506043829 11 209 1.6 3.2 0.15 0.99 0.10 97 1008.5
20260506043321 11 262 1.6 4.8 0.15 0.97 0.08 97 1008.5
20260506042832 11 131 1.6 4.8 0.20 0.97 0.08 97 1008.6
20260506042323 11 208 0.0 3.2 0.23 0.97 0.08 97 1008.3
20260506041815 11 208 1.6 4.8 0.23 0.94 0.05 97 1008.7
20260506041307 11 100 3.2 4.8 0.25 0.91 0.03 97 1008.6
20260506040820 11 249 1.6 3.2 0.25 0.89 0.00 97 1009.1
20260506040343 11 249 0.0 3.2 0.28 0.89 0.00 96 1008.9
20260506035815 11 249 0.0 3.2 0.28 0.89 0.89 96 1008.8
20260506035308 11 249 1.6 3.2 0.25 0.86 0.86 96 1008.8
20260506034822 11 249 0.0 3.2 0.25 0.86 0.86 96 1009.0
20260506034335 11 249 3.2 3.2 0.23 0.84 0.84 96 1008.9
20260506033806 11 249 1.6 3.2 0.23 0.84 0.84 96 1008.7
20260506033318 11 249 1.6 3.2 0.20 0.81 0.81 96 1008.7
20260506032818 11 249 1.6 3.2 0.15 0.76 0.76 96 1008.8
20260506032330 11 249 0.0 1.6 0.10 0.71 0.71 96 1008.7
20260506031821 11 249 0.0 3.2 0.10 0.71 0.71 96 1008.7
20260506031313 11 249 1.6 3.2 0.05 0.66 0.66 96 1008.5
20260506030846 11 249 1.6 3.2 0.03 0.64 0.64 96 1008.4
20260506030319 12 249 1.6 3.2 0.00 0.61 0.61 96 1008.3
20260506025812 12 249 1.6 4.8 0.03 0.61 0.61 95 1008.1
20260506025312 12 249 1.6 4.8 0.03 0.61 0.61 95 1008.0
20260506024825 12 249 3.2 4.8 0.03 0.61 0.61 96 1007.9
20260506024339 12 303 1.6 4.8 0.03 0.61 0.61 96 1007.7
20260506023810 12 303 3.2 4.8 0.03 0.61 0.61 96 1007.7
20260506023307 12 323 1.6 8.0 0.03 0.61 0.61 96 1007.4
20260506022820 13 328 3.2 8.0 0.03 0.61 0.61 97 1007.4
20260506022313 13 291 3.2 6.4 0.03 0.61 0.61 97 1007.5
20260506021824 13 293 3.2 6.4 0.03 0.61 0.61 97 1007.4
20260506021317 13 286 3.2 12.9 0.03 0.61 0.61 97 1007.3
20260506020808 13 317 1.6 8.0 0.03 0.61 0.61 97 1006.9
20260506020321 13 136 1.6 3.2 0.03 0.61 0.61 97 1006.9
20260506015812 13 136 0.0 0.0 0.00 0.58 0.58 97 1007.0
20260506015334 13 136 0.0 3.2 0.00 0.58 0.58 96 1007.1
20260506014825 13 136 1.6 3.2 0.00 0.58 0.58 96 1007.1
20260506014337 13 136 0.0 3.2 0.03 0.58 0.58 96 1007.0
20260506013808 13 136 0.0 1.6 0.03 0.58 0.58 97 1006.9
20260506013320 13 136 0.0 3.2 0.03 0.58 0.58 97 1006.7
20260506012833 13 136 0.0 3.2 0.03 0.58 0.58 97 1006.4
20260506012325 13 136 0.0 3.2 0.03 0.58 0.58 96 1006.2
20260506011818 13 136 1.6 3.2 0.03 0.58 0.58 96 1006.2
20260506011310 13 136 1.6 4.8 0.03 0.58 0.58 96 1006.0
20260506010822 13 136 1.6 4.8 0.03 0.58 0.58 97 1005.8
20260506010316 13 136 0.0 3.2 0.03 0.58 0.58 97 1006.0
20260506005808 13 136 0.0 3.2 0.03 0.58 0.58 97 1006.0
20260506005322 13 136 0.0 1.6 0.03 0.58 0.58 97 1005.8
20260506004815 13 136 1.6 3.2 0.03 0.58 0.58 96 1006.0
20260506004309 13 136 1.6 3.2 0.00 0.56 0.56 96 1005.9
20260506003843 13 136 0.0 3.2 0.00 0.56 0.56 96 1005.8
20260506003314 13 136 1.6 3.2 0.00 0.56 0.56 96 1005.6
20260506002808 13 136 1.6 3.2 0.00 0.56 0.56 96 1005.6
20260506002322 13 136 0.0 3.2 0.00 0.56 0.56 96 1005.5
20260506001814 13 136 1.6 4.8 0.00 0.56 0.56 96 1005.4
20260506001307 13 136 1.6 4.8 0.00 0.56 0.56 96 1005.3
20260506000819 13 214 1.6 4.8 0.00 0.56 0.56 96 1005.4
20260506000317 13 130 1.6 4.8 0.00 0.56 0.56 96 1005.2
20260505235808 13 277 0.0 4.8 0.00 0.56 0.56 95 1005.2
20260505235321 13 146 1.6 4.8 0.00 0.56 0.56 95 1005.3
20260505234812 13 146 1.6 4.8 0.00 0.56 0.56 96 1005.3
20260505234325 13 239 1.6 4.8 0.00 0.56 0.56 96 1005.3
20260505233838 13 266 1.6 3.2 0.00 0.56 0.56 95 1005.3
20260505233330 14 266 0.0 4.8 0.00 0.56 0.56 95 1005.4
20260505232822 14 251 0.0 4.8 0.00 0.56 0.56 95 1005.4
20260505232335 14 185 1.6 4.8 0.00 0.56 0.56 95 1005.4
20260505231835 14 255 1.6 4.8 0.00 0.56 0.56 95 1005.2
20260505231307 14 255 1.6 4.8 0.00 0.56 0.56 95 1004.9
20260505230820 14 255 1.6 4.8 0.00 0.56 0.56 95 1004.7
20260505230314 15 255 0.0 8.0 0.00 0.56 0.56 95 1004.5
20260505225826 15 185 3.2 8.0 0.00 0.56 0.56 95 1004.5
20260505225340 15 285 1.6 6.4 0.00 0.56 0.56 95 1004.6
20260505224832 15 276 0.0 4.8 0.00 0.56 0.56 95 1004.6
20260505224325 15 276 1.6 6.4 0.00 0.56 0.56 95 1004.6
20260505223817 15 207 3.2 4.8 0.00 0.56 0.56 95 1004.7
20260505223311 15 234 1.6 4.8 0.00 0.56 0.56 95 1004.7
20260505222823 15 234 3.2 4.8 0.00 0.56 0.56 94 1004.9
20260505222334 15 234 3.2 4.8 0.00 0.56 0.56 94 1005.1
20260505221826 15 251 3.2 4.8 0.00 0.56 0.56 94 1005.0
20260505221318 15 251 3.2 4.8 0.00 0.56 0.56 94 1004.9
20260505220810 15 251 3.2 4.8 0.00 0.56 0.56 94 1004.7
20260505220322 15 185 1.6 6.4 0.00 0.56 0.56 94 1004.6
20260505215815 15 137 1.6 6.4 0.00 0.56 0.56 94 1004.6
20260505215307 15 185 1.6 6.4 0.00 0.56 0.56 93 1004.5
20260505214819 15 168 3.2 6.4 0.00 0.56 0.56 94 1004.4
20260505214312 15 77 1.6 6.4 0.00 0.56 0.56 95 1004.6
20260505213825 15 241 3.2 8.0 0.00 0.56 0.56 94 1004.6
20260505213317 15 269 3.2 6.4 0.05 0.56 0.56 94 1004.6
20260505212811 15 230 1.6 6.4 0.10 0.56 0.56 94 1004.6
20260505212324 15 247 1.6 6.4 0.15 0.56 0.56 93 1004.5
20260505211838 15 273 1.6 4.8 0.23 0.56 0.56 93 1004.7
20260505211309 15 13 1.6 4.8 0.25 0.56 0.56 93 1004.4
20260505210807 15 259 3.2 4.8 0.25 0.56 0.56 93 1004.6
20260505210321 16 250 3.2 6.4 0.25 0.56 0.56 93 1004.4
20260505205834 16 145 3.2 6.4 0.25 0.56 0.56 93 1004.2
20260505205341 16 167 3.2 4.8 0.25 0.56 0.56 93 1004.2
20260505204818 16 153 0.0 6.4 0.25 0.56 0.56 94 1004.2
20260505204312 16 159 1.6 4.8 0.25 0.56 0.56 95 1004.3
20260505203824 16 175 1.6 4.8 0.25 0.56 0.56 95 1004.2
20260505203318 16 158 1.6 4.8 0.20 0.51 0.51 93 1004.2
20260505202812 16 149 3.2 6.4 0.15 0.46 0.46 93 1004.4
20260505202324 16 285 3.2 12.9 0.10 0.38 0.38 93 1004.7
20260505201818 16 280 6.4 14.5 0.13 0.33 0.33 92 1004.1
20260505201311 16 322 8.0 14.5 0.18 0.30 0.30 93 1004.0
20260505200823 16 268 1.6 6.4 0.23 0.30 0.30 93 1003.2
20260505200316 16 243 3.2 6.4 0.25 0.30 0.30 93 1003.0
20260505195808 16 135 1.6 8.0 0.25 0.30 0.30 94 1002.8
20260505195341 16 108 3.2 8.0 0.25 0.30 0.30 94 1002.6
20260505194813 16 126 1.6 6.4 0.30 0.30 0.30 93 1002.8
20260505194307 16 185 1.6 4.8 0.30 0.30 0.30 93 1003.0
20260505193847 16 221 1.6 4.8 0.30 0.30 0.30 93 1003.1
20260505193317 16 221 3.2 6.4 0.30 0.30 0.30 92 1002.9